Weather in Pyatovsk

Russia / Bryansk Oblast     52°39′16″N   32°41′57″E
temp.,
°C
wind,
m/s
gust,
m/s
humid.,
%
clouds,
%
prec.,
mm/h
press.,
hPa
HPBL,
m
11 april, sun
sun1100:00+4s49680 0.0 1026159
03:00+3ssw49700 0.0 1027156
06:00+2ssw35740 0.0 102767
09:00+7s35590 0.0 1029239
12:00+12s34460 0.0 1029827
15:00+14s22400 0.0 10281303
18:00+13ese34480 0.0 1028211
21:00+9e33580 0.0 102926
12 april, mon
mon1200:00+7ese34680 0.0 103048
03:00+5e3471100 0.0 103054
06:00+4ene377712 0.0 1029112
09:00+8ene51058100 0.0 1028409
12:00+11e5759100 0.0 1026706
15:00+9e3678100 0.9 1025467
18:00+11e357799 0.0 1024434
21:00+9ene3490100 0.0 102457
13 april, tue
tue1300:00+9ene3491100 0.0 102356
03:00+9ene3391100 0.0 102235
06:00+9e2289100 0.0 102214
09:00+12ese4676100 0.0 1022221
12:00+17se585798 0.0 1021989
15:00+18se6852100 0.0 10201732
18:00+16se5958100 0.0 1019633
21:00+13ssw2279100 0.0 102025
14 april, wed
wed1400:00+12se2484100 0.1 101975
03:00+11sse3787100 0.1 1018201
06:00+10sse358994 0.0 1018141
09:00+11se3683100 0.0 1018354
12:00+12se5678100 0.1 1018595
15:00+13sse2371100 0.3 1017560
18:00+11se2589100 1.0 1016325
21:00+10sse3696100 3.3 1016302
15 april, thu
thu1500:00+9sse2694100 0.2 1016186
03:00+7sse339450 0.3 101657
06:00+7se3492100 0.0 1016100
09:00+11sse237751 0.0 1016308
12:00+14se335987 0.3 10151054
15:00+15se2355100 0.8 10151254
18:00+15ene2258100 0.1 1014494
21:00+11e3477100 0.2 101568